Year,Month,Day,Hour,Minute,Value (Times are PST for temperature in C)
2010,07,18,00,00,16.10
2010,07,18,00,01,16.10
2010,07,18,00,02,16.00
2010,07,18,00,03,15.90
2010,07,18,00,04,15.90
2010,07,18,00,05,15.90
2010,07,18,00,06,15.90
2010,07,18,00,07,15.80
2010,07,18,00,08,15.80
2010,07,18,00,09,15.80
2010,07,18,00,10,15.80
2010,07,18,00,11,15.80
2010,07,18,00,12,15.80
2010,07,18,00,13,15.80
2010,07,18,00,14,15.80
2010,07,18,00,15,15.80
2010,07,18,00,16,15.80
2010,07,18,00,17,15.80
2010,07,18,00,18,15.80
2010,07,18,00,19,15.80
2010,07,18,00,20,15.80
2010,07,18,00,21,15.80
2010,07,18,00,22,15.80
2010,07,18,00,23,15.70
2010,07,18,00,24,15.70
2010,07,18,00,25,15.70
2010,07,18,00,26,15.70
2010,07,18,00,27,15.70
2010,07,18,00,28,15.70
2010,07,18,00,29,15.70
2010,07,18,00,30,15.70
2010,07,18,00,31,15.70
2010,07,18,00,32,15.60
2010,07,18,00,33,15.60
2010,07,18,00,34,15.60
2010,07,18,00,35,15.50
2010,07,18,00,36,15.50
2010,07,18,00,37,15.50
2010,07,18,00,38,15.50
2010,07,18,00,39,15.50
2010,07,18,00,40,15.50
2010,07,18,00,41,15.40
2010,07,18,00,42,15.40
2010,07,18,00,43,15.40
2010,07,18,00,44,15.40
2010,07,18,00,45,15.40
2010,07,18,00,46,15.40
2010,07,18,00,47,15.40
2010,07,18,00,48,15.40
2010,07,18,00,49,15.40
2010,07,18,00,50,15.40
2010,07,18,00,51,15.30
2010,07,18,00,52,15.30
2010,07,18,00,53,15.30
2010,07,18,00,54,15.30
2010,07,18,00,55,15.30
2010,07,18,00,56,15.20
2010,07,18,00,57,15.20
2010,07,18,00,58,15.20
2010,07,18,00,59,15.10
2010,07,18,01,00,15.10
2010,07,18,01,01,15.00
2010,07,18,01,02,15.00
2010,07,18,01,03,14.90
2010,07,18,01,04,14.90
2010,07,18,01,05,14.90
2010,07,18,01,06,14.80
2010,07,18,01,07,14.80
2010,07,18,01,08,14.80
2010,07,18,01,09,14.80
2010,07,18,01,10,14.80
2010,07,18,01,11,14.80
2010,07,18,01,12,14.80
2010,07,18,01,13,14.80
2010,07,18,01,14,14.80
2010,07,18,01,15,14.70
2010,07,18,01,16,14.70
2010,07,18,01,17,14.70
2010,07,18,01,18,14.70
2010,07,18,01,19,14.70
2010,07,18,01,20,14.70
2010,07,18,01,21,14.70
2010,07,18,01,22,14.70
2010,07,18,01,23,14.70
2010,07,18,01,24,14.60
2010,07,18,01,25,14.60
2010,07,18,01,26,14.60
2010,07,18,01,27,14.60
2010,07,18,01,28,14.60
2010,07,18,01,29,14.60
2010,07,18,01,30,14.60
2010,07,18,01,31,14.70
2010,07,18,01,32,14.70
2010,07,18,01,33,14.70
2010,07,18,01,34,14.60
2010,07,18,01,35,14.60
2010,07,18,01,36,14.60
2010,07,18,01,37,14.60
2010,07,18,01,38,14.60
2010,07,18,01,39,14.60
2010,07,18,01,40,14.60
2010,07,18,01,41,14.60
2010,07,18,01,42,14.70
2010,07,18,01,43,14.70
2010,07,18,01,44,14.70
2010,07,18,01,45,14.70
2010,07,18,01,46,14.70
2010,07,18,01,47,14.70
2010,07,18,01,48,14.70
2010,07,18,01,49,14.70
2010,07,18,01,50,14.70
2010,07,18,01,51,14.70
2010,07,18,01,52,14.70
2010,07,18,01,53,14.70
2010,07,18,01,54,14.70
2010,07,18,01,55,14.60
2010,07,18,01,56,14.60
2010,07,18,01,57,14.60
2010,07,18,01,58,14.60
2010,07,18,01,59,14.60
2010,07,18,02,00,14.60
2010,07,18,02,01,14.60
2010,07,18,02,02,14.50
2010,07,18,02,03,14.50
2010,07,18,02,04,14.50
2010,07,18,02,05,14.50
2010,07,18,02,06,14.40
2010,07,18,02,07,14.40
2010,07,18,02,08,14.40
2010,07,18,02,09,14.40
2010,07,18,02,10,14.30
2010,07,18,02,11,14.30
2010,07,18,02,12,14.30
2010,07,18,02,13,14.30
2010,07,18,02,14,14.30
2010,07,18,02,15,14.20
2010,07,18,02,16,14.20
2010,07,18,02,17,14.20
2010,07,18,02,18,14.20
2010,07,18,02,19,14.20
2010,07,18,02,20,14.20
2010,07,18,02,21,14.20
2010,07,18,02,22,14.20
2010,07,18,02,23,14.20
2010,07,18,02,24,14.20
2010,07,18,02,25,14.10
2010,07,18,02,26,14.10
2010,07,18,02,27,14.10
2010,07,18,02,28,14.10
2010,07,18,02,29,14.10
2010,07,18,02,30,14.10
2010,07,18,02,31,14.10
2010,07,18,02,32,14.10
2010,07,18,02,33,14.10
2010,07,18,02,34,14.10
2010,07,18,02,35,14.00
2010,07,18,02,36,14.00
2010,07,18,02,37,14.00
2010,07,18,02,38,14.00
2010,07,18,02,39,14.00
2010,07,18,02,40,14.00
2010,07,18,02,41,14.00
2010,07,18,02,42,14.00
2010,07,18,02,43,14.00
2010,07,18,02,44,14.00
2010,07,18,02,45,14.00
2010,07,18,02,46,13.90
2010,07,18,02,47,13.90
2010,07,18,02,48,13.90
2010,07,18,02,49,13.90
2010,07,18,02,50,13.80
2010,07,18,02,51,13.80
2010,07,18,02,52,13.80
2010,07,18,02,53,13.80
2010,07,18,02,54,13.70
2010,07,18,02,55,13.70
2010,07,18,02,56,13.70
2010,07,18,02,57,13.70
2010,07,18,02,58,13.70
2010,07,18,02,59,13.70
2010,07,18,03,00,13.70
2010,07,18,03,01,13.70
2010,07,18,03,02,13.70
2010,07,18,03,03,13.60
2010,07,18,03,04,13.60
2010,07,18,03,05,13.60
2010,07,18,03,06,13.60
2010,07,18,03,07,13.50
2010,07,18,03,08,13.50
2010,07,18,03,09,13.50
2010,07,18,03,10,13.50
2010,07,18,03,11,13.50
2010,07,18,03,12,13.40
2010,07,18,03,13,13.40
2010,07,18,03,14,13.40
2010,07,18,03,15,13.40
2010,07,18,03,16,13.30
2010,07,18,03,17,13.30
2010,07,18,03,18,13.30
2010,07,18,03,19,13.30
2010,07,18,03,20,13.30
2010,07,18,03,21,13.30
2010,07,18,03,22,13.30
2010,07,18,03,23,13.30
2010,07,18,03,24,13.30
2010,07,18,03,25,13.30
2010,07,18,03,26,13.30
2010,07,18,03,27,13.30
2010,07,18,03,28,13.20
2010,07,18,03,29,13.20
2010,07,18,03,30,13.20
2010,07,18,03,31,13.20
2010,07,18,03,32,13.10
2010,07,18,03,33,13.10
2010,07,18,03,34,13.10
2010,07,18,03,35,13.00
2010,07,18,03,36,13.00
2010,07,18,03,37,13.00
2010,07,18,03,38,13.00
2010,07,18,03,39,13.00
2010,07,18,03,40,13.00
2010,07,18,03,41,13.00
2010,07,18,03,42,12.90
2010,07,18,03,43,12.90
2010,07,18,03,44,12.90
2010,07,18,03,45,12.90
2010,07,18,03,46,12.90
2010,07,18,03,47,12.90
2010,07,18,03,48,12.90
2010,07,18,03,49,12.90
2010,07,18,03,50,12.90
2010,07,18,03,51,12.90
2010,07,18,03,52,12.80
2010,07,18,03,53,12.80
2010,07,18,03,54,12.80
2010,07,18,03,55,12.80
2010,07,18,03,56,12.80
2010,07,18,03,57,12.80
2010,07,18,03,58,12.80
2010,07,18,03,59,12.80
2010,07,18,04,00,12.80
2010,07,18,04,01,12.80
2010,07,18,04,02,12.70
2010,07,18,04,03,12.70
2010,07,18,04,04,12.70
2010,07,18,04,05,12.70
2010,07,18,04,06,12.70
2010,07,18,04,07,12.70
2010,07,18,04,08,12.70
2010,07,18,04,09,12.70
2010,07,18,04,10,12.70
2010,07,18,04,11,12.70
2010,07,18,04,12,12.70
2010,07,18,04,13,12.70
2010,07,18,04,14,12.70
2010,07,18,04,15,12.70
2010,07,18,04,16,12.70
2010,07,18,04,17,12.70
2010,07,18,04,18,12.70
2010,07,18,04,19,12.70
2010,07,18,04,20,12.60
2010,07,18,04,21,12.60
2010,07,18,04,22,12.60
2010,07,18,04,23,12.60
2010,07,18,04,24,12.60
2010,07,18,04,25,12.60
2010,07,18,04,26,12.60
2010,07,18,04,27,12.50
2010,07,18,04,28,12.50
2010,07,18,04,29,12.50
2010,07,18,04,30,12.50
2010,07,18,04,31,12.50
2010,07,18,04,32,12.50
2010,07,18,04,33,12.50
2010,07,18,04,34,12.50
2010,07,18,04,35,12.50
2010,07,18,04,36,12.50
2010,07,18,04,37,12.60
2010,07,18,04,38,12.60
2010,07,18,04,39,12.60
2010,07,18,04,40,12.60
2010,07,18,04,41,12.50
2010,07,18,04,42,12.50
2010,07,18,04,43,12.50
2010,07,18,04,44,12.50
2010,07,18,04,45,12.50
2010,07,18,04,46,12.50
2010,07,18,04,47,12.50
2010,07,18,04,48,12.40
2010,07,18,04,49,12.40
2010,07,18,04,50,12.40
2010,07,18,04,51,12.30
2010,07,18,04,52,12.30
2010,07,18,04,53,12.30
2010,07,18,04,54,12.30
2010,07,18,04,55,12.30
2010,07,18,04,56,12.30
2010,07,18,04,57,12.30
2010,07,18,04,58,12.30
2010,07,18,04,59,12.30
2010,07,18,05,00,12.20
2010,07,18,05,01,12.20
2010,07,18,05,02,12.20
2010,07,18,05,03,12.20
2010,07,18,05,04,12.20
2010,07,18,05,05,12.20
2010,07,18,05,06,12.20
2010,07,18,05,07,12.20
2010,07,18,05,08,12.10
2010,07,18,05,09,12.10
2010,07,18,05,10,12.10
2010,07,18,05,11,12.10
2010,07,18,05,12,12.10
2010,07,18,05,13,12.10
2010,07,18,05,14,12.00
2010,07,18,05,15,12.00
2010,07,18,05,16,12.00
2010,07,18,05,17,12.00
2010,07,18,05,18,12.00
2010,07,18,05,19,12.00
2010,07,18,05,20,12.00
2010,07,18,05,21,12.00
2010,07,18,05,22,11.90
2010,07,18,05,23,12.00
2010,07,18,05,24,12.00
2010,07,18,05,25,12.00
2010,07,18,05,26,12.00
2010,07,18,05,27,12.00
2010,07,18,05,28,12.00
2010,07,18,05,29,11.90
2010,07,18,05,30,11.90
2010,07,18,05,31,11.90
2010,07,18,05,32,11.90
2010,07,18,05,33,11.90
2010,07,18,05,34,11.90
2010,07,18,05,35,11.90
2010,07,18,05,36,11.90
2010,07,18,05,37,11.80
2010,07,18,05,38,11.80
2010,07,18,05,39,11.80
2010,07,18,05,40,11.80
2010,07,18,05,41,11.80
2010,07,18,05,42,11.80
2010,07,18,05,43,11.80
2010,07,18,05,44,11.80
2010,07,18,05,45,11.80
2010,07,18,05,46,11.80
2010,07,18,05,47,11.80
2010,07,18,05,48,11.80
2010,07,18,05,49,11.80
2010,07,18,05,50,11.80
2010,07,18,05,51,11.80
2010,07,18,05,52,11.80
2010,07,18,05,53,11.80
2010,07,18,05,54,11.80
2010,07,18,05,55,11.90
2010,07,18,05,56,11.90
2010,07,18,05,57,11.90
2010,07,18,05,58,11.90
2010,07,18,05,59,11.90
2010,07,18,06,00,11.90
2010,07,18,06,01,11.90
2010,07,18,06,02,11.90
2010,07,18,06,03,12.00
2010,07,18,06,04,12.00
2010,07,18,06,05,12.00
2010,07,18,06,06,12.00
2010,07,18,06,07,12.10
2010,07,18,06,08,12.10
2010,07,18,06,09,12.10
2010,07,18,06,10,12.10
2010,07,18,06,11,12.10
2010,07,18,06,12,12.10
2010,07,18,06,13,12.10
2010,07,18,06,14,12.10
2010,07,18,06,15,12.10
2010,07,18,06,16,12.10
2010,07,18,06,17,12.10
2010,07,18,06,18,12.10
2010,07,18,06,19,12.10
2010,07,18,06,20,12.20
2010,07,18,06,21,12.20
2010,07,18,06,22,12.20
2010,07,18,06,23,12.30
2010,07,18,06,24,12.30
2010,07,18,06,25,12.30
2010,07,18,06,26,12.30
2010,07,18,06,27,12.30
2010,07,18,06,28,12.30
2010,07,18,06,29,12.40
2010,07,18,06,30,12.50
2010,07,18,06,31,12.50
2010,07,18,06,32,12.60
2010,07,18,06,33,12.70
2010,07,18,06,34,12.70
2010,07,18,06,35,12.80
2010,07,18,06,36,12.90
2010,07,18,06,37,12.90
2010,07,18,06,38,13.00
2010,07,18,06,39,13.00
2010,07,18,06,40,13.00
2010,07,18,06,41,13.10
2010,07,18,06,42,13.10
2010,07,18,06,43,13.10
2010,07,18,06,44,13.20
2010,07,18,06,45,13.30
2010,07,18,06,46,13.30
2010,07,18,06,47,13.30
2010,07,18,06,48,13.40
2010,07,18,06,49,13.50
2010,07,18,06,50,13.60
2010,07,18,06,51,13.60
2010,07,18,06,52,13.60
2010,07,18,06,53,13.70
2010,07,18,06,54,13.70
2010,07,18,06,55,13.70
2010,07,18,06,56,13.70
2010,07,18,06,57,13.80
2010,07,18,06,58,13.90
2010,07,18,06,59,13.90
2010,07,18,07,00,14.00
2010,07,18,07,01,14.10
2010,07,18,07,02,14.10
2010,07,18,07,03,14.20
2010,07,18,07,04,14.20
2010,07,18,07,05,14.20
2010,07,18,07,06,14.30
2010,07,18,07,07,14.30
2010,07,18,07,08,14.30
2010,07,18,07,09,14.40
2010,07,18,07,10,14.40
2010,07,18,07,11,14.50
2010,07,18,07,12,14.50
2010,07,18,07,13,14.60
2010,07,18,07,14,14.60
2010,07,18,07,15,14.70
2010,07,18,07,16,14.70
2010,07,18,07,17,14.70
2010,07,18,07,18,14.70
2010,07,18,07,19,14.70
2010,07,18,07,20,14.80
2010,07,18,07,21,14.80
2010,07,18,07,22,14.80
2010,07,18,07,23,14.80
2010,07,18,07,24,14.90
2010,07,18,07,25,14.90
2010,07,18,07,26,14.90
2010,07,18,07,27,14.90
2010,07,18,07,28,14.90
2010,07,18,07,29,15.00
2010,07,18,07,30,15.00
2010,07,18,07,31,15.10
2010,07,18,07,32,15.20
2010,07,18,07,33,15.20
2010,07,18,07,34,15.30
2010,07,18,07,35,15.30
2010,07,18,07,36,15.40
2010,07,18,07,37,15.50
2010,07,18,07,38,15.50
2010,07,18,07,39,15.60
2010,07,18,07,40,15.70
2010,07,18,07,41,15.80
2010,07,18,07,42,15.80
2010,07,18,07,43,15.80
2010,07,18,07,44,15.60
2010,07,18,07,45,15.60
2010,07,18,07,46,15.50
2010,07,18,07,47,15.40
2010,07,18,07,48,15.40
2010,07,18,07,49,15.20
2010,07,18,07,50,15.10
2010,07,18,07,51,15.00
2010,07,18,07,52,15.10
2010,07,18,07,53,15.10
2010,07,18,07,54,15.00
2010,07,18,07,55,15.00
2010,07,18,07,56,15.00
2010,07,18,07,57,14.90
2010,07,18,07,58,14.90
2010,07,18,07,59,14.80
2010,07,18,08,00,14.80
2010,07,18,08,01,14.80
2010,07,18,08,02,14.80
2010,07,18,08,03,14.80
2010,07,18,08,04,14.90
2010,07,18,08,05,15.00
2010,07,18,08,06,15.00
2010,07,18,08,07,14.90
2010,07,18,08,08,14.90
2010,07,18,08,09,14.90
2010,07,18,08,10,15.00
2010,07,18,08,11,15.00
2010,07,18,08,12,15.10
2010,07,18,08,13,15.10
2010,07,18,08,14,15.10
2010,07,18,08,15,15.10
2010,07,18,08,16,15.10
2010,07,18,08,17,15.10
2010,07,18,08,18,15.10
2010,07,18,08,19,15.10
2010,07,18,08,20,15.10
2010,07,18,08,21,15.10
2010,07,18,08,22,15.20
2010,07,18,08,23,15.20
2010,07,18,08,24,15.20
2010,07,18,08,25,15.20
2010,07,18,08,26,15.20
2010,07,18,08,27,15.20
2010,07,18,08,28,15.20
2010,07,18,08,29,15.20
2010,07,18,08,30,15.30
2010,07,18,08,31,15.30
2010,07,18,08,32,15.30
2010,07,18,08,33,15.40
2010,07,18,08,34,15.40
2010,07,18,08,35,15.50
2010,07,18,08,36,15.60
2010,07,18,08,37,15.60
2010,07,18,08,38,15.60
2010,07,18,08,39,15.60
2010,07,18,08,40,15.50
2010,07,18,08,41,15.40
2010,07,18,08,42,15.30
2010,07,18,08,43,15.20
2010,07,18,08,44,15.20
2010,07,18,08,45,15.30
2010,07,18,08,46,15.40
2010,07,18,08,47,15.50
2010,07,18,08,48,15.60
2010,07,18,08,49,15.70
2010,07,18,08,50,15.80
2010,07,18,08,51,15.80
2010,07,18,08,52,15.80
2010,07,18,08,53,15.80
2010,07,18,08,54,15.90
2010,07,18,08,55,15.90
2010,07,18,08,56,15.70
2010,07,18,08,57,15.60
2010,07,18,08,58,15.50
2010,07,18,08,59,15.40
2010,07,18,09,00,15.40
2010,07,18,09,01,15.40
2010,07,18,09,02,15.30
2010,07,18,09,03,15.30
2010,07,18,09,04,15.30
2010,07,18,09,05,15.40
2010,07,18,09,06,15.50
2010,07,18,09,07,15.60
2010,07,18,09,08,15.70
2010,07,18,09,09,15.80
2010,07,18,09,10,15.90
2010,07,18,09,11,16.00
2010,07,18,09,12,16.10
2010,07,18,09,13,16.10
2010,07,18,09,14,16.10
2010,07,18,09,15,16.10
2010,07,18,09,16,16.10
2010,07,18,09,17,16.10
2010,07,18,09,18,16.10
2010,07,18,09,19,16.20
2010,07,18,09,20,16.10
2010,07,18,09,21,16.20
2010,07,18,09,22,16.10
2010,07,18,09,23,16.10
2010,07,18,09,24,16.10
2010,07,18,09,25,16.10
2010,07,18,09,26,16.20
2010,07,18,09,27,16.30
2010,07,18,09,28,16.40
2010,07,18,09,29,16.40
2010,07,18,09,30,16.40
2010,07,18,09,31,16.40
2010,07,18,09,32,16.30
2010,07,18,09,33,16.30
2010,07,18,09,34,16.30
2010,07,18,09,35,16.40
2010,07,18,09,36,16.40
2010,07,18,09,37,16.40
2010,07,18,09,38,16.40
2010,07,18,09,39,16.40
2010,07,18,09,40,16.40
2010,07,18,09,41,16.40
2010,07,18,09,42,16.40
2010,07,18,09,43,16.40
2010,07,18,09,44,16.40
2010,07,18,09,45,16.40
2010,07,18,09,46,16.40
2010,07,18,09,47,16.50
2010,07,18,09,48,16.60
2010,07,18,09,49,16.70
2010,07,18,09,50,16.80
2010,07,18,09,51,16.90
2010,07,18,09,52,17.00
2010,07,18,09,53,16.80
2010,07,18,09,54,16.80
2010,07,18,09,55,16.80
2010,07,18,09,56,16.90
2010,07,18,09,57,16.80
2010,07,18,09,58,16.70
2010,07,18,09,59,16.50
2010,07,18,10,00,16.40
2010,07,18,10,01,16.40
2010,07,18,10,02,16.20
2010,07,18,10,03,16.20
2010,07,18,10,04,16.10
2010,07,18,10,05,16.10
2010,07,18,10,06,16.10
2010,07,18,10,07,16.20
2010,07,18,10,08,16.30
2010,07,18,10,09,16.30
2010,07,18,10,10,16.40
2010,07,18,10,11,16.60
2010,07,18,10,12,16.80
2010,07,18,10,13,16.90
2010,07,18,10,14,17.00
2010,07,18,10,15,17.10
2010,07,18,10,16,17.30
2010,07,18,10,17,17.40
2010,07,18,10,18,17.50
2010,07,18,10,19,17.50
2010,07,18,10,20,17.30
2010,07,18,10,21,17.20
2010,07,18,10,22,17.00
2010,07,18,10,23,16.90
2010,07,18,10,24,16.90
2010,07,18,10,25,16.80
2010,07,18,10,26,16.90
2010,07,18,10,27,17.00
2010,07,18,10,28,17.00
2010,07,18,10,29,16.90
2010,07,18,10,30,16.80
2010,07,18,10,31,16.70
2010,07,18,10,32,16.70
2010,07,18,10,33,16.70
2010,07,18,10,34,16.60
2010,07,18,10,35,16.50
2010,07,18,10,36,16.40
2010,07,18,10,37,16.40
2010,07,18,10,38,16.40
2010,07,18,10,39,16.20
2010,07,18,10,40,16.00
2010,07,18,10,41,15.70
2010,07,18,10,42,15.70
2010,07,18,10,43,15.60
2010,07,18,10,44,15.60
2010,07,18,10,45,15.60
2010,07,18,10,46,15.40
2010,07,18,10,47,15.30
2010,07,18,10,48,15.20
2010,07,18,10,49,15.20
2010,07,18,10,50,15.30
2010,07,18,10,51,15.30
2010,07,18,10,52,15.40
2010,07,18,10,53,15.30
2010,07,18,10,54,15.30
2010,07,18,10,55,15.30
2010,07,18,10,56,15.20
2010,07,18,10,57,15.10
2010,07,18,10,58,14.90
2010,07,18,10,59,14.80
2010,07,18,11,00,14.90
2010,07,18,11,01,15.00
2010,07,18,11,02,15.10
2010,07,18,11,03,15.30
2010,07,18,11,04,15.40
2010,07,18,11,05,15.50
2010,07,18,11,06,15.40
2010,07,18,11,07,15.30
2010,07,18,11,08,15.30
2010,07,18,11,09,15.30
2010,07,18,11,10,15.40
2010,07,18,11,11,15.20
2010,07,18,11,12,15.10
2010,07,18,11,13,14.90
2010,07,18,11,14,14.60
2010,07,18,11,15,14.30
2010,07,18,11,16,14.00
2010,07,18,11,17,13.80
2010,07,18,11,18,13.70
2010,07,18,11,19,13.60
2010,07,18,11,20,13.60
2010,07,18,11,21,13.70
2010,07,18,11,22,13.70
2010,07,18,11,23,13.80
2010,07,18,11,24,13.80
2010,07,18,11,25,13.70
2010,07,18,11,26,13.70
2010,07,18,11,27,13.50
2010,07,18,11,28,13.50
2010,07,18,11,29,13.50
2010,07,18,11,30,13.50
2010,07,18,11,31,13.30
2010,07,18,11,32,13.20
2010,07,18,11,33,13.20
2010,07,18,11,34,13.10
2010,07,18,11,35,13.00
2010,07,18,11,36,12.90
2010,07,18,11,37,12.80
2010,07,18,11,38,12.70
2010,07,18,11,39,12.70
2010,07,18,11,40,12.70
2010,07,18,11,41,12.60
2010,07,18,11,42,12.60
2010,07,18,11,43,12.40
2010,07,18,11,44,12.30
2010,07,18,11,45,12.40
2010,07,18,11,46,12.40
2010,07,18,11,47,12.30
2010,07,18,11,48,12.30
2010,07,18,11,49,12.30
2010,07,18,11,50,12.30
2010,07,18,11,51,12.40
2010,07,18,11,52,12.60
2010,07,18,11,53,12.60
2010,07,18,11,54,12.60
2010,07,18,11,55,12.70
2010,07,18,11,56,12.80
2010,07,18,11,57,12.70
2010,07,18,11,58,12.60
2010,07,18,11,59,12.50
2010,07,18,12,00,12.60
2010,07,18,12,01,12.70
2010,07,18,12,02,12.70
2010,07,18,12,03,12.80
2010,07,18,12,04,12.80
2010,07,18,12,05,12.80
2010,07,18,12,06,12.80
2010,07,18,12,07,12.70
2010,07,18,12,08,12.60
2010,07,18,12,09,12.50
2010,07,18,12,10,12.60
2010,07,18,12,11,12.60
2010,07,18,12,12,12.30
2010,07,18,12,13,12.10
2010,07,18,12,14,11.90
2010,07,18,12,15,11.70
2010,07,18,12,16,11.60
2010,07,18,12,17,11.50
2010,07,18,12,18,11.50
2010,07,18,12,19,11.60
2010,07,18,12,20,11.80
2010,07,18,12,21,11.90
2010,07,18,12,22,12.20
2010,07,18,12,23,12.30
2010,07,18,12,24,12.30
2010,07,18,12,25,12.30
2010,07,18,12,26,12.40
2010,07,18,12,27,12.60
2010,07,18,12,28,12.60
2010,07,18,12,29,12.60
2010,07,18,12,30,12.70
2010,07,18,12,31,12.60
2010,07,18,12,32,12.50
2010,07,18,12,33,12.40
2010,07,18,12,34,12.40
2010,07,18,12,35,12.30
2010,07,18,12,36,12.30
2010,07,18,12,37,12.30
2010,07,18,12,38,12.30
2010,07,18,12,39,12.30
2010,07,18,12,40,12.40
2010,07,18,12,41,12.40
2010,07,18,12,42,12.40
2010,07,18,12,43,12.40
2010,07,18,12,44,12.40
2010,07,18,12,45,12.40
2010,07,18,12,46,12.30
2010,07,18,12,47,12.40
2010,07,18,12,48,12.50
2010,07,18,12,49,12.60
2010,07,18,12,50,12.70
2010,07,18,12,51,12.80
2010,07,18,12,52,12.80
2010,07,18,12,53,12.80
2010,07,18,12,54,12.80
2010,07,18,12,55,12.90
2010,07,18,12,56,13.00
2010,07,18,12,57,13.00
2010,07,18,12,58,13.10
2010,07,18,12,59,13.00
2010,07,18,13,00,12.90
2010,07,18,13,01,12.90
2010,07,18,13,02,12.90
2010,07,18,13,03,12.90
2010,07,18,13,04,13.00
2010,07,18,13,05,13.00
2010,07,18,13,06,12.90
2010,07,18,13,07,12.90
2010,07,18,13,08,12.90
2010,07,18,13,09,13.00
2010,07,18,13,10,13.00
2010,07,18,13,11,13.10
2010,07,18,13,12,13.10
2010,07,18,13,13,13.10
2010,07,18,13,14,13.20
2010,07,18,13,15,13.20
2010,07,18,13,16,13.10
2010,07,18,13,17,13.10
2010,07,18,13,18,13.00
2010,07,18,13,19,12.80
2010,07,18,13,20,12.80
2010,07,18,13,21,12.80
2010,07,18,13,22,12.80
2010,07,18,13,23,13.00
2010,07,18,13,24,13.00
2010,07,18,13,25,12.90
2010,07,18,13,26,12.90
2010,07,18,13,27,13.00
2010,07,18,13,28,13.00
2010,07,18,13,29,13.10
2010,07,18,13,30,13.30
2010,07,18,13,31,13.40
2010,07,18,13,32,13.50
2010,07,18,13,33,13.60
2010,07,18,13,34,13.60
2010,07,18,13,35,13.70
2010,07,18,13,36,13.70
2010,07,18,13,37,13.80
2010,07,18,13,38,13.80
2010,07,18,13,39,13.70
2010,07,18,13,40,13.70
2010,07,18,13,41,13.80
2010,07,18,13,42,13.80
2010,07,18,13,43,13.80
2010,07,18,13,44,13.90
2010,07,18,13,45,13.80
2010,07,18,13,46,13.80
2010,07,18,13,47,13.80
2010,07,18,13,48,13.90
2010,07,18,13,49,13.90
2010,07,18,13,50,13.90
2010,07,18,13,51,13.70
2010,07,18,13,52,13.60
2010,07,18,13,53,13.50
2010,07,18,13,54,13.60
2010,07,18,13,55,13.60
2010,07,18,13,56,13.70
2010,07,18,13,57,13.70
2010,07,18,13,58,13.60
2010,07,18,13,59,13.60
2010,07,18,14,00,13.60
2010,07,18,14,01,13.60
2010,07,18,14,02,13.50
2010,07,18,14,03,13.40
2010,07,18,14,04,13.50
2010,07,18,14,05,13.50
2010,07,18,14,06,13.60
2010,07,18,14,07,13.50
2010,07,18,14,08,13.50
2010,07,18,14,09,13.60
2010,07,18,14,10,13.80
2010,07,18,14,11,14.00
2010,07,18,14,12,14.00
2010,07,18,14,13,14.00
2010,07,18,14,14,13.90
2010,07,18,14,15,13.70
2010,07,18,14,16,13.60
2010,07,18,14,17,13.60
2010,07,18,14,18,13.40
2010,07,18,14,19,13.40
2010,07,18,14,20,13.50
2010,07,18,14,21,13.60
2010,07,18,14,22,13.70
2010,07,18,14,23,13.60
2010,07,18,14,24,13.60
2010,07,18,14,25,13.70
2010,07,18,14,26,13.70
2010,07,18,14,27,13.70
2010,07,18,14,28,13.70
2010,07,18,14,29,13.70
2010,07,18,14,30,13.70
2010,07,18,14,31,13.80
2010,07,18,14,32,14.00
2010,07,18,14,33,14.20
2010,07,18,14,34,14.30
2010,07,18,14,35,14.50
2010,07,18,14,36,14.60
2010,07,18,14,37,14.80
2010,07,18,14,38,14.70
2010,07,18,14,39,14.70
2010,07,18,14,40,14.70
2010,07,18,14,41,14.60
2010,07,18,14,42,14.60
2010,07,18,14,43,14.70
2010,07,18,14,44,14.70
2010,07,18,14,45,14.80
2010,07,18,14,46,14.70
2010,07,18,14,47,14.70
2010,07,18,14,48,14.70
2010,07,18,14,49,14.80
2010,07,18,14,50,14.80
2010,07,18,14,51,14.80
2010,07,18,14,52,14.80
2010,07,18,14,53,15.00
2010,07,18,14,54,15.00
2010,07,18,14,55,15.00
2010,07,18,14,56,15.00
2010,07,18,14,57,15.00
2010,07,18,14,58,15.00
2010,07,18,14,59,14.70
2010,07,18,15,00,14.80
2010,07,18,15,01,14.80
2010,07,18,15,02,14.80
2010,07,18,15,03,14.80
2010,07,18,15,04,14.80
2010,07,18,15,05,14.70
2010,07,18,15,06,14.60
2010,07,18,15,07,14.60
2010,07,18,15,08,14.70
2010,07,18,15,09,14.70
2010,07,18,15,10,14.80
2010,07,18,15,11,15.00
2010,07,18,15,12,15.20
2010,07,18,15,13,15.20
2010,07,18,15,14,15.20
2010,07,18,15,15,15.20
2010,07,18,15,16,15.30
2010,07,18,15,17,15.10
2010,07,18,15,18,14.90
2010,07,18,15,19,14.70
2010,07,18,15,20,14.70
2010,07,18,15,21,14.60
2010,07,18,15,22,14.60
2010,07,18,15,23,14.70
2010,07,18,15,24,14.70
2010,07,18,15,25,14.70
2010,07,18,15,26,14.60
2010,07,18,15,27,14.60
2010,07,18,15,28,14.60
2010,07,18,15,29,14.60
2010,07,18,15,30,14.60
2010,07,18,15,31,14.30
2010,07,18,15,32,14.30
2010,07,18,15,33,14.40
2010,07,18,15,34,14.40
2010,07,18,15,35,14.40
2010,07,18,15,36,14.50
2010,07,18,15,37,14.60
2010,07,18,15,38,14.60
2010,07,18,15,39,14.60
2010,07,18,15,40,14.50
2010,07,18,15,41,14.30
2010,07,18,15,42,14.10
2010,07,18,15,43,13.90
2010,07,18,15,44,13.80
2010,07,18,15,45,13.80
2010,07,18,15,46,13.90
2010,07,18,15,47,14.00
2010,07,18,15,48,14.00
2010,07,18,15,49,14.00
2010,07,18,15,50,14.10
2010,07,18,15,51,14.20
2010,07,18,15,52,14.30
2010,07,18,15,53,14.20
2010,07,18,15,54,14.30
2010,07,18,15,55,14.40
2010,07,18,15,56,14.40
2010,07,18,15,57,14.50
2010,07,18,15,58,14.60
2010,07,18,15,59,14.70
2010,07,18,16,00,14.70
2010,07,18,16,01,14.70
2010,07,18,16,02,14.80
2010,07,18,16,03,14.90
2010,07,18,16,04,15.00
2010,07,18,16,05,15.00
2010,07,18,16,06,15.00
2010,07,18,16,07,15.00
2010,07,18,16,08,15.00
2010,07,18,16,09,15.00
2010,07,18,16,10,15.00
2010,07,18,16,11,14.80
2010,07,18,16,12,14.80
2010,07,18,16,13,14.90
2010,07,18,16,14,14.90
2010,07,18,16,15,15.00
2010,07,18,16,16,15.00
2010,07,18,16,17,15.00
2010,07,18,16,18,14.90
2010,07,18,16,19,14.70
2010,07,18,16,20,14.60
2010,07,18,16,21,14.50
2010,07,18,16,22,14.30
2010,07,18,16,23,14.20
2010,07,18,16,24,14.20
2010,07,18,16,25,14.20
2010,07,18,16,26,14.20
2010,07,18,16,27,14.30
2010,07,18,16,28,14.40
2010,07,18,16,29,14.50
2010,07,18,16,30,14.60
2010,07,18,16,31,14.40
2010,07,18,16,32,14.30
2010,07,18,16,33,14.20
2010,07,18,16,34,14.20
2010,07,18,16,35,14.20
2010,07,18,16,36,14.10
2010,07,18,16,37,14.10
2010,07,18,16,38,14.10
2010,07,18,16,39,14.10
2010,07,18,16,40,14.10
2010,07,18,16,41,14.10
2010,07,18,16,42,14.20
2010,07,18,16,43,14.20
2010,07,18,16,44,14.20
2010,07,18,16,45,14.30
2010,07,18,16,46,14.50
2010,07,18,16,47,14.70
2010,07,18,16,48,14.80
2010,07,18,16,49,14.80
2010,07,18,16,50,14.90
2010,07,18,16,51,14.80
2010,07,18,16,52,14.60
2010,07,18,16,53,14.50
2010,07,18,16,54,14.40
2010,07,18,16,55,14.30
2010,07,18,16,56,14.30
2010,07,18,16,57,14.20
2010,07,18,16,58,14.20
2010,07,18,16,59,14.20
2010,07,18,17,00,14.20
2010,07,18,17,01,14.30
2010,07,18,17,02,14.50
2010,07,18,17,03,14.60
2010,07,18,17,04,14.70
2010,07,18,17,05,14.70
2010,07,18,17,06,14.70
2010,07,18,17,07,14.60
2010,07,18,17,08,14.60
2010,07,18,17,09,14.60
2010,07,18,17,10,14.70
2010,07,18,17,11,14.70
2010,07,18,17,12,14.80
2010,07,18,17,13,14.70
2010,07,18,17,14,14.70
2010,07,18,17,15,14.70
2010,07,18,17,16,14.60
2010,07,18,17,17,14.60
2010,07,18,17,18,14.60
2010,07,18,17,19,14.70